Weather History for Alexandria, LA

Change the Weather History Date:

Sunday, July 21, 2013

  Actual Average Record
Temperature  
Mean Temperature 27 °C 28 °C  
Max Temperature 32 °C 33 °C 39 °C (1924)
Min Temperature 22 °C 23 °C 18 °C (1984)
Cooling Degree Days 15 18  
Month to date cooling degree days 341 360  
Year to date cooling degree days 1215 1267  
Since 1 June cooling degree days 822 813  
Growing Degree Days 30 (Base 50)    
Moisture  
Dew Point 23 °C    
Average Humidity 82    
Maximum Humidity 100    
Minimum Humidity 63    
Precipitation  
Precipitation 2.79 mm 2.29 mm 3.05 mm (1917)
Month to date precipitation 1.85 2.79  
Year to date precipitation 31.30 31.89  
Sea Level Pressure  
Sea Level Pressure 1015 hPa    
Wind  
Wind Speed 8 km/h (SSW)    
Max Wind Speed 32 km/h    
Max Gust Speed 40 km/h    
Visibility 14 kilometers    
Events Rain , Thunderstorm    
T = Trace of Precipitation, MM = Missing Value Source: NWS Daily Summary

Daily Weather History Graph

Daily Weather History Graph

Search for Another Location

Airport:

Trip Planner

Search our weather history database for the weather conditions in past years. The results will help you decide how hot, cold, wet, or windy it might be!

Date:

Astronomy

Jul. 21, 2013 Rise Set
Actual Time 6:20 AM CDT 8:12 PM CDT
Civil Twilight 5:53 AM CDT 8:39 PM CDT
Nautical Twilight 5:20 AM CDT 9:12 PM CDT
Astronomical Twilight 4:45 AM CDT 9:47 PM CDT
Moon 7:14 PM CDT (7/21) 5:05 AM CDT (7/21)
Length of Visible Light 14h 46m
Length of Day
13h 52m
Waxing Gibbous, 98% of the Moon is Illuminated
Jul 21
Waxing Gibbous
Jul 22
Full
Jul 29
Last Quarter
Aug 6
New
Aug 14
First Quarter

Hourly Weather History & Observations

Time (CDT) Temp. Heat Index Dew Point Humidity Pressure Visibility Wind Dir Wind Speed Gust Speed Precip Events Conditions
12:53 AM 23.9 °C - 21.7 °C 87% 1014.7 hPa 16.1 km SSE 7.4 km/h / 2.1 m/s - N/A   Clear
1:53 AM 22.8 °C - 21.7 °C 93% 1014.7 hPa 11.3 km Calm Calm - N/A   Clear
2:53 AM 22.8 °C - 21.7 °C 93% 1014.6 hPa 11.3 km Calm Calm - N/A   Clear
3:53 AM 22.2 °C - 21.7 °C 97% 1014.3 hPa 8.0 km Calm Calm - N/A   Clear
4:53 AM 22.2 °C - 21.7 °C 97% 1014.7 hPa 11.3 km Calm Calm - N/A   Clear
5:53 AM 21.7 °C - 21.1 °C 96% 1014.9 hPa 8.0 km Calm Calm - N/A   Clear
6:53 AM 22.2 °C - 21.7 °C 97% 1015.2 hPa 9.7 km Calm Calm - N/A   Clear
7:36 AM 23.0 °C - 23.0 °C 100% 1014.8 hPa 11.3 km SE 7.4 km/h / 2.1 m/s - N/A   Partly Cloudy
7:53 AM 24.4 °C - 23.3 °C 94% 1015.6 hPa 12.9 km SSE 7.4 km/h / 2.1 m/s - N/A   Partly Cloudy
8:53 AM 26.7 °C 29.2 °C 23.3 °C 81% 1015.8 hPa 16.1 km South 7.4 km/h / 2.1 m/s - N/A   Clear
9:53 AM 28.9 °C 32.9 °C 23.3 °C 72% 1015.4 hPa 16.1 km WSW 9.3 km/h / 2.6 m/s - N/A   Scattered Clouds
10:44 AM 30.0 °C 34.1 °C 23.0 °C 66% 1015.1 hPa 16.1 km SW 9.3 km/h / 2.6 m/s - N/A   Mostly Cloudy
10:53 AM 29.4 °C 33.0 °C 22.8 °C 67% 1015.5 hPa 16.1 km Variable 11.1 km/h / 3.1 m/s - N/A   Mostly Cloudy
11:16 AM 29.0 °C 32.7 °C 23.0 °C 70% 1015.5 hPa 16.1 km SSW 9.3 km/h / 2.6 m/s - N/A   Mostly Cloudy
11:53 AM 28.9 °C 33.6 °C 24.4 °C 76% 1015.4 hPa 16.1 km SW 13.0 km/h / 3.6 m/s - 0.3 mm Rain Light Rain
12:28 PM 29.0 °C 33.5 °C 24.0 °C 74% 1015.1 hPa 4.8 km Calm Calm - 2.5 mm Thunderstorm Haze
12:53 PM 31.1 °C 36.4 °C 23.9 °C 65% 1015.2 hPa 4.8 km South 13.0 km/h / 3.6 m/s - 2.5 mm Thunderstorm Haze
1:13 PM 31.0 °C 35.4 °C 23.0 °C 62% 1014.8 hPa 16.1 km SSW 11.1 km/h / 3.1 m/s - N/A   Scattered Clouds
1:53 PM 30.0 °C 33.0 °C 21.7 °C 61% 1014.7 hPa 16.1 km SSW 13.0 km/h / 3.6 m/s - N/A   Partly Cloudy
2:53 PM 30.6 °C 34.7 °C 22.8 °C 63% 1014.5 hPa 16.1 km South 20.4 km/h / 5.7 m/s - N/A   Mostly Cloudy
3:53 PM 25.6 °C - 22.8 °C 84% 1014.5 hPa 16.1 km SSW 16.7 km/h / 4.6 m/s 29.6 km/h / 8.2 m/s 0.0 mm Rain Light Rain
4:53 PM 26.7 °C 29.0 °C 22.8 °C 79% 1014.7 hPa 16.1 km WSW 14.8 km/h / 4.1 m/s - 0.0 mm   Partly Cloudy
5:53 PM 26.7 °C 29.0 °C 22.8 °C 79% 1014.0 hPa 16.1 km SSW 9.3 km/h / 2.6 m/s - 0.0 mm   Clear
6:53 PM 27.2 °C 30.4 °C 23.9 °C 82% 1013.9 hPa 16.1 km SSW 5.6 km/h / 1.5 m/s - N/A   Clear
7:53 PM 26.7 °C 29.5 °C 23.9 °C 85% 1014.0 hPa 16.1 km Calm Calm - N/A   Clear
8:53 PM 25.6 °C - 23.3 °C 87% 1014.4 hPa 16.1 km South 7.4 km/h / 2.1 m/s - N/A   Clear
9:53 PM 25.0 °C - 23.9 °C 94% 1014.7 hPa 16.1 km South 7.4 km/h / 2.1 m/s - N/A   Clear
10:53 PM 25.0 °C - 23.3 °C 90% 1015.2 hPa 16.1 km South 7.4 km/h / 2.1 m/s - N/A   Clear
11:53 PM 24.4 °C - 22.8 °C 91% 1015.7 hPa 16.1 km South 11.1 km/h / 3.1 m/s - N/A   Clear